Helicity
127 170 228 218 171 200 221 234 168 138 86 60 30 65 97 95 102 127 -14 39 136 125 114 137 169 161 166 152 143 129 92 76 75 76 72 64 67 70 40 42 38 47 40 35 59 61 58 51 65
160 191 204 241 275 290 245 200 132 82 68 16 46 93 127 115 93 110 90 110 166 127 140 129 174 168 149 147 141 127 87 66 67 69 67 60 57 63 41 29 43 52 57 60 74 83 76 68 69
183 214 234 251 340 309 343 298 152 85 46 102 86 90 104 130 78 31 54 125 158 125 150 182 181 186 153 147 124 112 94 70 57 47 60 56 61 55 38 39 50 54 76 73 104 109 88 67 65
207 247 267 375 304 297 177 136 63 77 -46 -18 46 60 189 123 92 30 127 143 192 129 162 225 198 173 154 145 132 108 111 84 65 40 67 56 65 58 48 69 42 72 94 98 117 134 135 131 127
188 279 324 411 324 368 293 211 135 99 30 -6 45 92 133 214 166 168 195 221 222 139 146 204 224 174 157 144 135 122 117 105 78 47 64 73 73 76 67 71 68 97 109 123 133 160 190 174 149
275 307 379 372 257 240 207 102 62 55 12 -23 1 121 87 207 205 125 198 184 201 151 116 150 216 189 170 154 131 131 122 116 95 69 76 91 87 83 77 83 80 108 107 127 176 202 188 186 173
278 341 409 277 252 255 240 186 165 112 136 82 5 21 86 124 114 118 148 150 187 195 126 103 185 207 163 156 132 143 127 132 122 108 102 94 88 88 85 86 105 115 136 120 163 161 176 171 127
222 308 434 375 257 144 118 103 83 43 89 30 -40 64 80 105 83 175 224 157 255 223 157 110 191 216 179 186 170 164 148 158 157 145 148 107 93 94 110 124 139 149 137 134 169 167 170 162 126
197 366 381 344 227 139 267 329 236 101 73 90 38 138 370 689 308 237 246 312 280 234 186 148 232 226 224 206 188 199 196 195 187 187 171 163 152 127 183 159 165 146 129 145 177 184 183 166 164
323 424 402 334 376 385 294 328 299 184 99 109 134 214 406 641 627 187 200 285 309 271 216 194 247 261 281 233 206 218 231 227 208 210 213 214 216 217 208 182 167 130 122 145 167 166 201 168 162
480 474 450 322 408 422 365 344 257 355 231 228 209 230 504 490 579 576 116 226 234 248 306 246 253 295 297 285 276 290 286 274 263 227 228 266 280 286 255 247 211 182 135 183 208 220 166 146 152
404 251 249 243 242 205 242 196 222 188 231 165 168 136 322 424 534 639 479 103 217 274 247 227 266 350 300 325 331 324 300 288 259 262 278 297 285 334 346 279 213 196 165 203 265 219 168 154 147
183 197 104 107 95 66 77 91 114 73 -38 -44 -62 36 222 343 452 497 470 296 182 244 193 226 274 344 330 332 358 353 300 285 288 294 271 247 289 378 350 265 217 192 210 276 262 228 200 184 169
71 63 37 72 114 86 124 154 196 218 168 129 -44 -146 -85 157 142 374 428 401 249 209 238 231 252 347 362 321 347 373 347 296 291 270 265 238 318 390 293 276 250 252 244 283 275 240 197 171 163
56 67 86 72 86 20 57 -33 12 118 219 191 133 -132 -182 -118 -88 68 209 397 430 128 221 250 245 353 394 355 339 387 381 309 314 278 247 250 382 364 319 313 302 264 273 366 322 257 224 218 205
75 132 146 103 41 87 165 17 4 14 15 135 199 42 -199 -207 -54 -78 -9 251 408 406 160 226 270 349 390 422 387 404 372 331 337 286 272 250 330 318 326 363 301 314 344 355 312 281 305 289 275
98 151 99 80 138 102 140 -7 -11 23 16 -8 70 101 -120 -294 -215 -93 -90 71 289 333 152 127 208 320 402 408 394 387 375 348 394 329 300 258 294 308 357 368 326 326 336 334 336 306 299 318 293
95 109 149 162 132 38 82 8 9 9 13 -9 20 57 61 -195 -314 -272 -138 -68 181 244 347 76 206 294 433 423 426 453 420 365 436 352 319 282 309 306 379 362 360 330 334 334 353 370 358 349 329
112 99 143 180 100 30 70 79 115 119 52 7 2 -28 78 66 -210 -352 -305 -171 20 132 285 110 156 314 466 472 496 513 433 397 473 359 317 335 333 342 369 357 362 330 339 314 348 380 411 390 352
91 91 141 160 67 39 31 77 144 64 31 21 27 1 -1 46 -11 -63 -342 -212 -0 40 321 228 116 243 523 575 443 554 499 433 485 368 315 342 389 378 391 365 347 322 344 322 356 391 402 361 303
80 103 223 192 174 55 91 45 70 -4 52 87 116 105 72 53 43 60 -196 -164 -77 59 281 319 117 207 191 481 581 554 524 501 565 394 380 351 404 416 394 370 368 319 332 330 347 353 329 276 219
153 171 235 158 43 132 83 32 41 -1 27 49 52 43 49 73 176 52 -92 -126 14 33 182 182 182 92 137 478 546 506 555 576 571 467 410 356 353 446 419 416 370 336 370 326 303 290 255 238 178
187 140 264 74 76 110 122 140 112 22 27 49 34 12 28 47 82 121 55 -142 76 68 137 235 175 35 148 437 532 564 538 623 640 497 466 368 349 410 447 414 381 379 380 310 281 256 239 186 167
97 136 152 60 98 123 115 104 193 60 7 1 5 25 -5 45 33 104 47 36 130 167 178 261 200 97 66 294 305 550 484 602 625 556 491 496 425 423 375 352 361 376 354 312 274 248 199 161 152
93 82 139 102 114 156 64 60 157 120 28 -68 -73 -22 -41 -51 6 32 130 -17 -1 225 264 291 294 243 90 123 402 443 639 538 513 514 525 523 482 405 358 355 356 360 334 302 260 225 171 137 138
149 141 147 285 248 219 138 135 124 210 -55 -83 34 148 188 133 171 89 89 90 -3 400 282 343 269 188 28 123 357 365 689 776 631 575 525 528 448 394 376 372 353 354 320 293 233 205 145 137 128
195 136 156 393 284 292 215 179 149 -64 -80 45 124 215 264 256 190 164 175 153 46 435 359 346 317 115 71 168 468 449 515 477 493 510 461 439 421 455 418 378 374 346 289 264 228 186 152 156 170
210 144 213 216 253 274 321 182 202 -79 45 70 224 435 428 351 383 222 261 175 115 415 352 317 305 99 127 154 337 430 507 631 626 596 460 426 414 423 468 425 398 339 294 255 226 197 197 187 192
196 160 202 293 198 320 364 280 186 -30 111 150 360 570 468 485 315 281 273 230 101 250 314 297 206 126 123 197 367 436 656 508 541 500 514 456 424 406 457 459 422 350 306 250 241 212 206 195 198
172 160 176 239 275 151 296 303 170 137 226 287 490 498 482 357 246 330 317 188 212 238 227 282 161 96 93 97 206 506 473 482 339 554 334 337 443 390 483 467 433 361 310 275 243 235 205 210 195
Wind_Speed
45 43 42 39 43 41 51 53 44 49 47 49 57 45 41 48 51 53 11 10 3 14 17 22 27 28 28 32 30 29 28 27 26 26 22 24 25 21 20 23 25 29 31 39 49 52 54 58 53
46 43 33 43 52 56 63 49 49 38 42 67 69 55 52 55 42 33 16 8 10 15 19 21 28 27 26 29 29 28 28 27 27 27 24 24 22 16 16 20 24 30 35 37 46 48 50 55 60
44 37 40 50 62 54 77 55 55 59 58 58 56 54 49 52 47 25 23 8 10 13 19 25 27 27 27 27 28 27 26 26 26 27 24 23 19 15 14 19 23 31 34 37 38 45 51 55 54
38 40 47 66 66 70 64 61 55 67 79 70 63 58 51 47 47 34 16 15 13 13 16 24 27 27 28 28 27 25 26 25 24 25 24 23 18 16 14 19 26 33 35 37 34 37 39 41 40
42 47 70 79 79 81 71 66 67 71 70 72 65 68 55 43 29 16 17 15 16 17 18 22 28 29 29 27 26 26 25 25 23 24 26 22 17 17 15 19 28 32 36 35 34 30 29 37 42
42 44 72 84 90 86 76 75 79 86 86 89 70 69 53 27 18 18 14 19 17 17 22 24 26 30 30 28 25 26 26 25 24 25 24 20 17 17 20 23 29 33 35 35 33 26 28 37 38
43 55 74 83 94 89 78 65 72 79 86 87 74 78 64 52 31 25 25 22 22 20 23 26 28 31 32 30 27 26 27 27 26 24 23 19 15 17 22 28 29 31 34 34 32 33 35 36 39
43 57 78 78 92 106 84 90 86 74 84 70 57 72 64 62 37 32 31 28 27 26 29 29 31 33 33 31 30 28 28 28 28 25 21 18 15 17 24 29 30 31 30 31 32 34 34 34 35
44 67 89 88 87 89 84 94 87 83 79 77 64 54 57 57 56 52 42 37 31 32 34 33 35 36 35 32 32 30 29 29 28 24 21 18 17 18 22 27 31 29 28 30 31 31 31 33 32
53 75 83 72 84 94 98 98 88 93 101 87 82 77 72 63 56 66 54 49 42 40 40 38 38 42 39 36 35 32 30 28 25 22 20 19 22 22 24 27 28 29 29 28 28 27 26 24 20
68 84 89 91 93 99 108 106 97 100 104 92 95 93 87 80 68 62 75 61 53 44 48 47 42 45 44 41 39 35 33 30 26 23 21 23 24 27 27 24 21 22 25 21 17 15 14 17 19
83 78 81 92 97 101 110 106 110 105 107 101 98 94 89 87 83 76 70 73 58 51 52 54 48 49 48 45 44 40 37 34 30 26 24 28 28 30 28 24 21 22 15 21 12 15 18 19 22
73 82 87 96 102 105 106 108 113 117 103 97 94 91 93 90 88 82 77 75 64 61 58 57 52 51 53 50 48 46 41 38 33 29 28 29 32 32 30 26 23 20 17 13 16 20 20 21 22
68 78 84 83 90 88 97 105 102 102 96 104 103 97 89 84 84 86 82 77 69 65 67 61 58 55 55 54 52 50 45 41 38 33 33 33 32 33 32 29 26 22 15 13 16 19 20 20 24
68 80 77 70 80 94 97 107 109 107 104 107 105 104 99 92 84 85 82 83 77 80 69 69 65 60 60 59 55 55 50 47 41 38 38 36 34 36 34 33 28 23 19 17 17 17 20 21 20
62 62 84 81 86 82 88 112 100 93 100 111 114 120 112 106 99 90 88 86 83 78 80 72 70 67 65 64 60 58 55 51 47 41 41 39 39 38 37 31 30 26 22 19 20 20 20 18 18
58 77 90 83 61 74 80 107 99 89 91 103 108 116 127 121 112 100 92 87 84 82 82 85 73 74 69 65 65 61 59 55 50 44 45 43 43 39 36 34 32 30 25 22 23 20 23 22 20
66 77 47 60 50 54 81 101 102 92 89 96 99 107 121 130 126 110 100 95 89 86 81 92 78 77 73 68 68 65 64 61 54 50 48 47 45 43 37 36 36 34 30 25 25 26 20 21 21
47 45 49 54 62 44 52 47 94 92 91 92 93 98 113 124 129 118 109 101 95 88 85 88 85 81 80 77 75 76 73 68 58 55 52 51 49 47 41 38 37 36 34 31 30 28 27 20 22
55 56 61 60 56 59 44 45 42 74 75 79 86 90 100 120 127 120 119 107 102 92 89 90 92 88 87 82 79 79 73 69 60 56 54 53 52 50 45 42 38 37 36 36 35 33 26 21 18
66 60 67 63 58 54 24 32 39 55 55 58 60 60 67 90 120 125 125 113 104 101 89 87 98 96 100 88 80 81 76 70 66 62 59 58 54 52 48 45 41 39 38 38 36 35 35 30 18
63 64 66 57 44 43 37 55 56 61 62 67 66 66 70 77 95 101 112 123 111 110 91 83 90 110 127 89 85 91 90 82 75 68 61 59 56 52 50 47 45 42 39 39 37 34 31 31 29
60 66 64 33 28 36 42 33 49 57 73 76 76 74 75 78 86 102 111 123 118 111 101 89 84 109 117 95 92 92 91 82 75 68 66 61 59 54 50 48 46 43 41 41 38 36 32 29 26
67 64 46 45 47 48 39 60 56 67 78 83 83 80 79 81 87 94 100 110 119 108 108 98 92 100 99 82 95 99 96 88 86 75 70 64 60 56 54 50 48 45 43 43 39 37 35 32 27
72 76 76 67 65 48 48 51 36 57 82 83 88 87 89 90 87 96 99 100 126 120 113 98 96 98 91 87 99 101 97 88 89 79 73 67 62 57 56 53 50 48 45 43 40 39 36 33 28
53 72 69 59 54 52 43 45 42 61 70 89 90 90 88 85 85 93 99 101 117 123 111 103 97 94 87 100 85 100 94 87 86 78 73 69 63 57 55 52 49 48 45 44 41 39 38 34 30
52 72 51 52 39 48 43 49 37 92 107 101 92 87 85 82 77 84 92 98 110 120 112 102 97 91 85 89 77 83 98 93 101 77 72 67 61 57 55 52 49 47 46 44 42 41 39 35 31
52 61 66 60 63 60 50 48 47 98 101 95 87 84 80 71 62 71 83 88 104 112 105 101 95 91 80 81 89 75 78 88 92 82 74 66 64 59 57 54 51 49 46 45 44 43 39 36 31
60 64 51 47 42 49 44 43 52 76 69 79 73 70 64 52 48 59 72 83 97 103 99 96 94 88 79 75 75 65 72 80 75 77 69 70 62 60 58 57 53 51 47 46 46 44 41 36 31
66 65 56 60 50 38 38 33 49 50 48 53 54 55 45 38 41 48 54 73 86 101 96 92 89 86 81 80 73 68 63 71 73 68 69 58 61 63 58 56 55 53 49 47 48 45 42 37 33
Wind_Direction
317 311 314 313 301 297 290 287 291 292 291 289 284 291 290 288 281 280 301 315 132 144 153 151 147 141 131 127 125 120 116 113 109 105 106 106 100 97 87 78 73 70 73 77 81 79 78 78 74
319 317 318 304 289 282 286 286 289 288 294 278 278 286 284 280 291 290 274 263 136 146 156 162 152 150 145 133 131 127 123 118 114 111 113 113 108 102 91 81 78 80 82 80 81 78 76 78 78
319 320 307 295 286 266 285 288 287 289 289 287 287 282 281 276 285 279 279 217 184 156 154 160 163 157 154 145 137 134 131 125 120 118 119 120 115 106 97 88 87 89 87 85 81 79 80 81 76
326 317 303 285 278 287 285 292 293 288 280 280 283 285 282 279 279 276 222 200 190 178 171 162 168 166 162 155 145 142 137 133 126 124 123 125 120 108 104 98 96 95 92 91 84 81 76 72 69
317 308 291 286 281 284 286 289 290 290 287 281 283 281 280 276 280 266 227 211 200 203 196 172 167 173 170 167 156 148 146 139 135 132 130 130 126 111 108 107 104 98 95 90 88 81 71 70 74
313 307 292 285 285 286 288 287 285 283 281 274 280 278 280 270 265 247 229 226 214 205 202 187 176 177 176 177 170 156 152 147 145 140 136 136 128 118 110 115 111 103 98 91 87 81 76 77 73
306 300 291 290 290 288 289 294 287 286 281 278 277 274 272 269 267 249 252 225 215 209 202 199 191 184 180 176 174 167 156 151 151 149 143 141 139 129 118 118 116 109 102 96 88 84 83 79 74
313 305 296 294 291 289 289 284 284 290 281 289 285 271 271 271 267 253 250 231 226 226 209 204 198 191 186 183 179 175 163 155 153 155 157 152 149 142 127 120 117 112 105 100 94 88 83 79 74
312 300 295 295 296 292 295 288 286 287 282 282 280 279 280 288 274 256 248 244 232 231 216 207 200 197 195 189 183 179 171 161 157 161 160 161 175 160 142 129 120 117 111 104 98 91 84 79 74
302 295 299 301 300 297 294 290 291 283 277 276 276 276 279 285 283 257 245 241 234 227 222 209 200 202 195 195 187 189 185 181 176 174 181 189 180 177 153 138 125 117 114 109 102 93 86 80 68
310 296 301 298 300 299 294 289 290 283 272 277 273 274 275 273 274 276 252 243 240 230 223 216 204 201 200 199 197 196 197 196 191 180 186 176 177 166 161 152 141 127 118 116 105 94 87 82 75
310 306 305 302 301 298 292 292 283 279 277 278 276 273 273 268 265 267 264 254 241 231 226 220 209 203 202 204 204 201 200 198 196 190 182 172 171 173 174 170 161 145 149 119 105 99 95 86 82
319 316 311 305 302 297 294 288 284 277 280 280 277 273 269 267 262 262 266 265 242 234 231 223 214 206 203 201 204 204 204 202 201 194 184 179 172 178 177 175 168 173 152 138 111 105 101 93 86
328 323 319 318 312 307 299 290 287 282 284 279 273 269 268 266 263 261 262 260 257 237 233 227 221 210 205 203 202 204 202 203 201 201 187 180 184 180 177 177 173 168 171 157 124 115 108 101 95
332 325 323 323 320 309 310 291 282 282 283 276 271 265 264 264 263 257 259 258 258 248 235 230 225 214 207 206 204 206 201 202 205 202 188 185 182 178 175 169 181 176 167 140 128 125 114 107 99
340 339 329 325 319 318 314 293 292 290 281 275 269 263 260 259 259 257 258 258 256 257 237 232 227 217 209 209 205 207 202 202 208 203 196 188 184 178 172 177 173 172 164 151 138 134 124 115 106
349 338 331 334 343 332 320 302 297 296 287 276 271 263 257 255 255 255 255 256 256 255 247 232 225 219 209 208 207 205 200 201 207 203 198 193 189 188 183 179 172 166 168 162 151 142 130 121 110
344 341 341 336 334 340 329 309 294 294 289 279 273 265 256 252 250 252 254 254 253 253 252 235 225 218 209 209 207 204 203 201 207 204 200 194 197 190 190 182 173 170 169 170 163 148 144 130 118
348 339 331 327 334 325 330 309 291 293 288 282 273 266 256 251 248 250 250 252 250 250 249 236 224 216 209 207 207 202 202 200 204 206 198 198 198 195 192 187 179 177 173 171 165 158 149 147 131
355 343 334 331 341 328 303 284 277 297 291 288 278 270 261 249 247 247 245 247 246 246 245 240 228 219 209 206 211 203 200 201 201 202 198 198 197 197 197 190 187 183 179 171 167 163 161 161 162
354 347 344 335 307 336 305 338 2 351 337 322 313 291 276 259 246 244 241 241 244 240 242 242 230 222 223 204 206 205 205 201 205 202 201 199 198 200 200 195 194 189 183 180 175 173 165 166 206
354 356 343 330 348 359 13 345 348 345 327 323 311 300 285 272 252 247 242 238 238 236 240 242 236 227 225 194 201 207 203 201 203 198 199 197 196 198 197 198 196 195 193 188 187 187 187 176 170
354 358 341 347 4 13 15 7 358 353 324 314 308 302 293 278 259 247 242 237 234 234 237 239 241 229 227 210 204 207 203 206 199 198 195 198 200 200 200 200 198 200 199 197 193 193 195 198 191
4 3 8 26 26 19 22 356 348 344 327 312 304 298 294 286 266 251 245 239 231 232 233 237 239 232 227 217 210 204 206 203 201 200 198 200 200 201 202 203 204 204 202 200 201 200 198 201 211
15 20 24 23 19 17 9 357 8 1 341 318 308 296 292 287 270 250 242 237 228 229 229 234 235 232 227 228 206 209 205 206 198 196 199 197 200 201 203 201 203 207 205 206 207 207 204 205 204
31 26 24 13 8 355 358 15 5 356 357 321 309 302 297 287 268 247 238 234 226 226 227 230 231 229 227 221 201 210 205 208 205 201 200 199 201 199 197 202 203 205 207 206 208 209 212 212 213
28 23 21 12 13 15 19 10 14 329 324 317 309 303 296 287 267 244 237 233 222 221 223 226 227 224 224 220 211 215 211 206 207 200 201 201 202 200 201 202 203 202 205 206 208 211 211 214 214
37 24 22 26 20 16 16 12 12 326 322 318 312 306 297 287 261 243 233 229 217 216 220 225 225 220 221 220 216 213 209 210 201 200 195 200 207 204 200 203 201 201 203 209 211 217 216 213 218
28 26 30 27 30 22 17 20 24 322 317 315 309 305 299 280 259 243 231 223 211 213 218 223 220 217 219 220 214 210 206 207 209 208 207 199 204 201 201 203 201 201 201 207 213 216 214 214 214
30 26 27 23 24 22 19 16 10 339 329 320 312 310 303 289 263 241 225 208 210 211 216 222 216 216 219 219 220 210 217 213 204 209 209 208 205 205 206 203 202 206 204 207 214 212 214 210 212